| time (UTC) | temp F | wind direction | speed knots | gust knots | rain 1hr in | rain 24hr in | rain mn in | humidity % | barometer mb |
| 20260508153506 | 50 | 113 | 0.9 | 7.0 | 0.00 | 0.00 | 0.00 | 76 | 1018.5 |
| 20260508153006 | 50 | 182 | 0.0 | 7.0 | 0.00 | 0.00 | 0.00 | 76 | 1018.5 |
| 20260508152506 | 50 | 154 | 0.9 | 6.1 | 0.00 | 0.00 | 0.00 | 76 | 1018.5 |
| 20260508152006 | 50 | 156 | 0.0 | 4.3 | 0.00 | 0.00 | 0.00 | 76 | 1018.5 |
| 20260508151506 | 50 | 117 | 0.0 | 4.3 | 0.00 | 0.00 | 0.00 | 76 | 1018.5 |
| 20260508150506 | 49 | 190 | 0.0 | 5.2 | 0.00 | 0.00 | 0.00 | 76 | 1018.5 |
| 20260508150006 | 49 | 140 | 0.9 | 7.0 | 0.00 | 0.00 | 0.00 | 76 | 1019.5 |
| 20260508145508 | 49 | 171 | 3.5 | 7.8 | 0.00 | 0.00 | 0.00 | 76 | 1019.5 |
| 20260508145006 | 50 | 181 | 1.7 | 7.8 | 0.00 | 0.00 | 0.00 | 77 | 1019.5 |
| 20260508144506 | 50 | 145 | 2.6 | 7.0 | 0.00 | 0.00 | 0.00 | 78 | 1018.5 |
| 20260508144007 | 49 | 142 | 2.6 | 7.0 | 0.00 | 0.00 | 0.00 | 78 | 1018.5 |
| 20260508143506 | 49 | 194 | 0.0 | 7.0 | 0.00 | 0.00 | 0.00 | 79 | 1018.5 |
| 20260508143007 | 49 | 200 | 1.7 | 7.0 | 0.00 | 0.00 | 0.00 | 78 | 1018.5 |
| 20260508142006 | 49 | 220 | 0.0 | 5.2 | 0.00 | 0.00 | 0.00 | 78 | 1018.5 |
| 20260508141506 | 48 | 183 | 0.9 | 5.2 | 0.00 | 0.00 | 0.00 | 78 | 1018.5 |
| 20260508141006 | 48 | 195 | 0.9 | 5.2 | 0.00 | 0.00 | 0.00 | 78 | 1018.5 |
| 20260508140506 | 48 | 154 | 0.0 | 4.3 | 0.00 | 0.00 | 0.00 | 77 | 1018.5 |
| 20260508140006 | 48 | 192 | 0.0 | 1.7 | 0.00 | 0.00 | 0.00 | 76 | 1018.5 |
| 20260508135506 | 48 | 226 | 0.0 | 0.0 | 0.00 | 0.00 | 0.00 | 76 | 1018.5 |
| 20260508135007 | 48 | 215 | 0.0 | 0.0 | 0.00 | 0.00 | 0.00 | 75 | 1018.5 |
| 20260508134506 | 48 | 204 | 0.0 | 0.0 | 0.00 | 0.00 | 0.00 | 75 | 1017.5 |
| 20260508134006 | 48 | 238 | 0.0 | 0.0 | 0.00 | 0.00 | 0.00 | 73 | 1017.5 |
| 20260508133506 | 48 | 260 | 0.0 | 0.0 | 0.00 | 0.00 | 0.00 | 73 | 1017.5 |
| 20260508132505 | 48 | 260 | 0.0 | 0.0 | 0.00 | 0.00 | 0.00 | 72 | 1017.5 |
| 20260508132005 | 48 | 282 | 0.0 | 0.0 | 0.00 | 0.00 | 0.00 | 72 | 1017.5 |
| 20260508131506 | 49 | 282 | 0.0 | 0.0 | 0.00 | 0.00 | 0.00 | 72 | 1017.5 |
| 20260508130505 | 49 | 260 | 0.0 | 0.0 | 0.00 | 0.00 | 0.00 | 71 | 1017.5 |
| 20260508130006 | 49 | 260 | 0.0 | 0.0 | 0.00 | 0.00 | 0.00 | 71 | 1017.5 |
| 20260508125506 | 49 | 260 | 0.0 | 0.0 | 0.00 | 0.00 | 0.00 | 71 | 1017.5 |
| 20260508125006 | 49 | 260 | 0.0 | 0.0 | 0.00 | 0.00 | 0.00 | 71 | 1017.5 |
| 20260508124506 | 50 | 260 | 0.0 | 0.0 | 0.00 | 0.00 | 0.00 | 71 | 1017.5 |
| 20260508124006 | 50 | 260 | 0.0 | 0.0 | 0.00 | 0.00 | 0.00 | 71 | 1017.5 |
| 20260508123506 | 50 | 260 | 0.0 | 0.0 | 0.00 | 0.00 | 0.00 | 71 | 1017.5 |
| 20260508123006 | 50 | 260 | 0.0 | 0.0 | 0.00 | 0.00 | 0.00 | 70 | 1017.5 |
| 20260508122506 | 50 | 260 | 0.0 | 0.0 | 0.00 | 0.00 | 0.00 | 70 | 1017.5 |
| 20260508122006 | 50 | 260 | 0.0 | 0.0 | 0.00 | 0.00 | 0.00 | 70 | 1017.5 |
| 20260508121506 | 50 | 260 | 0.0 | 0.0 | 0.00 | 0.00 | 0.00 | 70 | 1017.5 |
| 20260508120505 | 50 | 260 | 0.0 | 0.0 | 0.00 | 0.00 | 0.00 | 70 | 1017.5 |
| 20260508120006 | 50 | 260 | 0.0 | 0.0 | 0.00 | 0.00 | 0.00 | 70 | 1016.5 |
| 20260508115506 | 51 | 290 | 0.0 | 0.0 | 0.00 | 0.00 | 0.00 | 69 | 1016.5 |
| 20260508115005 | 51 | 253 | 0.0 | 0.0 | 0.00 | 0.00 | 0.00 | 69 | 1016.5 |
| 20260508114505 | 51 | 279 | 0.0 | 0.0 | 0.00 | 0.00 | 0.00 | 69 | 1016.5 |
| 20260508114005 | 51 | 263 | 0.0 | 4.3 | 0.00 | 0.00 | 0.00 | 69 | 1016.5 |
| 20260508113505 | 51 | 275 | 0.0 | 4.3 | 0.00 | 0.00 | 0.00 | 69 | 1016.5 |
| 20260508113006 | 51 | 282 | 0.0 | 4.3 | 0.00 | 0.00 | 0.00 | 69 | 1016.5 |
| 20260508112506 | 51 | 260 | 0.0 | 0.0 | 0.00 | 0.00 | 0.00 | 69 | 1016.5 |
| 20260508112006 | 51 | 271 | 0.0 | 0.0 | 0.00 | 0.00 | 0.00 | 69 | 1016.5 |
| 20260508111505 | 51 | 246 | 0.0 | 0.0 | 0.00 | 0.00 | 0.00 | 69 | 1016.5 |
| 20260508111006 | 51 | 252 | 0.0 | 0.0 | 0.00 | 0.00 | 0.00 | 69 | 1016.5 |
| 20260508110505 | 51 | 238 | 0.0 | 0.0 | 0.00 | 0.00 | 0.00 | 69 | 1016.5 |
| 20260508110006 | 51 | 260 | 0.0 | 0.0 | 0.00 | 0.00 | 0.00 | 69 | 1016.5 |
| 20260508105005 | 51 | 259 | 0.0 | 0.0 | 0.00 | 0.00 | 0.00 | 69 | 1016.5 |
| 20260508104505 | 51 | 260 | 0.0 | 0.0 | 0.00 | 0.00 | 0.00 | 69 | 1016.5 |
| 20260508104006 | 51 | 260 | 0.0 | 0.0 | 0.00 | 0.00 | 0.00 | 69 | 1016.5 |
| 20260508103006 | 52 | 260 | 0.0 | 0.0 | 0.00 | 0.00 | 0.00 | 68 | 1016.5 |
| 20260508102506 | 52 | 249 | 0.0 | 0.0 | 0.00 | 0.00 | 0.00 | 68 | 1016.5 |
| 20260508102005 | 52 | 282 | 0.0 | 0.0 | 0.00 | 0.00 | 0.00 | 68 | 1016.5 |
| 20260508101506 | 52 | 282 | 0.0 | 0.0 | 0.00 | 0.00 | 0.00 | 67 | 1016.5 |
| 20260508101006 | 52 | 282 | 0.0 | 0.0 | 0.00 | 0.00 | 0.00 | 67 | 1016.5 |
| 20260508100506 | 52 | 282 | 0.0 | 0.0 | 0.00 | 0.00 | 0.00 | 67 | 1016.5 |
| 20260508100005 | 52 | 282 | 0.0 | 0.0 | 0.00 | 0.00 | 0.00 | 66 | 1016.5 |
| 20260508095506 | 52 | 282 | 0.0 | 0.0 | 0.00 | 0.00 | 0.00 | 66 | 1016.5 |
| 20260508095006 | 53 | 282 | 0.0 | 0.0 | 0.00 | 0.00 | 0.00 | 66 | 1016.5 |
| 20260508094506 | 53 | 282 | 0.0 | 0.0 | 0.00 | 0.00 | 0.00 | 66 | 1016.5 |
| 20260508094005 | 53 | 282 | 0.0 | 0.0 | 0.00 | 0.00 | 0.00 | 66 | 1016.5 |
| 20260508093505 | 53 | 282 | 0.0 | 0.0 | 0.00 | 0.00 | 0.00 | 65 | 1016.5 |
| 20260508093006 | 52 | 282 | 0.0 | 0.0 | 0.00 | 0.00 | 0.00 | 65 | 1016.5 |
| 20260508092505 | 52 | 282 | 0.0 | 0.0 | 0.00 | 0.00 | 0.00 | 64 | 1016.5 |
| 20260508092005 | 52 | 282 | 0.0 | 0.0 | 0.00 | 0.00 | 0.00 | 63 | 1016.5 |
| 20260508091506 | 52 | 282 | 0.0 | 0.0 | 0.00 | 0.00 | 0.00 | 62 | 1016.5 |
| 20260508091005 | 53 | 282 | 0.0 | 0.0 | 0.00 | 0.00 | 0.00 | 62 | 1016.5 |
| 20260508090505 | 53 | 282 | 0.0 | 0.0 | 0.00 | 0.00 | 0.00 | 61 | 1016.5 |
| 20260508090005 | 53 | 282 | 0.0 | 0.0 | 0.00 | 0.00 | 0.00 | 61 | 1015.5 |
| 20260508085005 | 53 | 282 | 0.0 | 0.0 | 0.00 | 0.00 | 0.00 | 60 | 1015.5 |
| 20260508084505 | 54 | 282 | 0.0 | 0.0 | 0.00 | 0.00 | 0.00 | 59 | 1015.5 |
| 20260508084005 | 54 | 282 | 0.0 | 0.0 | 0.00 | 0.00 | 0.00 | 59 | 1015.5 |
| 20260508083505 | 54 | 282 | 0.0 | 0.0 | 0.00 | 0.00 | 0.00 | 58 | 1015.5 |
| 20260508083005 | 54 | 282 | 0.0 | 0.0 | 0.00 | 0.00 | 0.00 | 58 | 1015.5 |
| 20260508082505 | 55 | 282 | 0.0 | 0.0 | 0.00 | 0.00 | 0.00 | 57 | 1015.5 |
| 20260508082006 | 55 | 282 | 0.0 | 0.0 | 0.00 | 0.00 | 0.00 | 57 | 1015.5 |
| 20260508081505 | 55 | 282 | 0.0 | 0.0 | 0.00 | 0.00 | 0.00 | 57 | 1015.5 |
| 20260508080005 | 55 | 282 | 0.0 | 0.0 | 0.00 | 0.00 | 0.00 | 56 | 1015.5 |
| 20260508075506 | 55 | 282 | 0.0 | 0.0 | 0.00 | 0.00 | 0.00 | 55 | 1015.5 |
| 20260508074005 | 56 | 282 | 0.0 | 0.0 | 0.00 | 0.00 | 0.00 | 54 | 1014.5 |
| 20260508073005 | 56 | 282 | 0.0 | 0.0 | 0.00 | 0.00 | 0.00 | 54 | 1015.5 |
| 20260508072005 | 56 | 282 | 0.0 | 0.0 | 0.00 | 0.00 | 0.00 | 53 | 1015.5 |
| 20260508071505 | 56 | 282 | 0.0 | 0.0 | 0.00 | 0.00 | 0.00 | 53 | 1015.5 |
| 20260508071005 | 57 | 282 | 0.0 | 0.0 | 0.00 | 0.00 | 0.00 | 53 | 1015.5 |
| 20260508070505 | 57 | 282 | 0.0 | 0.0 | 0.00 | 0.00 | 0.00 | 53 | 1015.5 |
| 20260508070005 | 57 | 282 | 0.0 | 0.0 | 0.00 | 0.00 | 0.00 | 52 | 1015.5 |
| 20260508065506 | 57 | 282 | 0.0 | 0.0 | 0.00 | 0.00 | 0.00 | 52 | 1015.5 |
| 20260508065005 | 57 | 282 | 0.0 | 0.0 | 0.00 | 0.00 | 0.00 | 52 | 1015.5 |
| 20260508064505 | 57 | 282 | 0.0 | 0.0 | 0.00 | 0.00 | 0.00 | 52 | 1015.5 |
| 20260508064005 | 57 | 282 | 0.0 | 0.0 | 0.00 | 0.00 | 0.00 | 51 | 1015.5 |
| 20260508063505 | 57 | 282 | 0.0 | 0.0 | 0.00 | 0.00 | 0.00 | 51 | 1015.5 |
| 20260508063006 | 58 | 282 | 0.0 | 0.0 | 0.00 | 0.00 | 0.00 | 51 | 1015.5 |
| 20260508062505 | 58 | 282 | 0.0 | 0.0 | 0.00 | 0.00 | 0.00 | 51 | 1015.5 |
| 20260508061506 | 58 | 282 | 0.0 | 0.0 | 0.00 | 0.00 | 0.00 | 50 | 1015.5 |
| 20260508060005 | 58 | 282 | 0.0 | 0.0 | 0.00 | 0.00 | 0.00 | 50 | 1015.5 |
| 20260508055505 | 58 | 282 | 0.0 | 0.0 | 0.00 | 0.00 | 0.00 | 50 | 1015.5 |
| 20260508055005 | 59 | 282 | 0.0 | 0.0 | 0.00 | 0.00 | 0.00 | 49 | 1015.5 |
| 20260508054505 | 59 | 282 | 0.0 | 0.0 | 0.00 | 0.00 | 0.00 | 49 | 1015.5 |
| 20260508054005 | 59 | 282 | 0.0 | 0.0 | 0.00 | 0.00 | 0.00 | 48 | 1015.5 |
| 20260508053505 | 59 | 282 | 0.0 | 0.0 | 0.00 | 0.00 | 0.00 | 48 | 1015.5 |
| 20260508053005 | 59 | 282 | 0.0 | 0.0 | 0.00 | 0.00 | 0.00 | 48 | 1015.5 |
| 20260508052005 | 59 | 282 | 0.0 | 0.0 | 0.00 | 0.00 | 0.00 | 47 | 1015.5 |
| 20260508051504 | 60 | 282 | 0.0 | 0.0 | 0.00 | 0.00 | 0.00 | 47 | 1015.5 |
| 20260508051005 | 60 | 282 | 0.0 | 0.0 | 0.00 | 0.00 | 0.00 | 47 | 1015.5 |
| 20260508050505 | 60 | 282 | 0.0 | 0.0 | 0.00 | 0.00 | 0.00 | 46 | 1015.5 |
| 20260508050004 | 60 | 282 | 0.0 | 0.0 | 0.00 | 0.00 | 0.00 | 46 | 1015.5 |
| 20260508045505 | 60 | 282 | 0.0 | 0.0 | 0.00 | 0.00 | 0.00 | 46 | 1015.5 |
| 20260508045004 | 60 | 282 | 0.0 | 0.0 | 0.00 | 0.00 | 0.00 | 46 | 1015.5 |
| 20260508044505 | 60 | 282 | 0.0 | 0.0 | 0.00 | 0.00 | 0.00 | 46 | 1015.5 |
| 20260508044005 | 60 | 282 | 0.0 | 0.0 | 0.00 | 0.00 | 0.00 | 46 | 1015.5 |
| 20260508043505 | 60 | 305 | 0.0 | 0.0 | 0.00 | 0.00 | 0.00 | 46 | 1015.5 |
| 20260508043005 | 60 | 305 | 0.0 | 0.0 | 0.00 | 0.00 | 0.00 | 46 | 1015.5 |
| 20260508042504 | 61 | 305 | 0.0 | 0.0 | 0.00 | 0.00 | 0.00 | 46 | 1015.5 |
| 20260508042005 | 61 | 305 | 0.0 | 0.0 | 0.00 | 0.00 | 0.00 | 45 | 1015.5 |
| 20260508041505 | 61 | 305 | 0.0 | 0.0 | 0.00 | 0.00 | 0.00 | 45 | 1015.5 |
| 20260508041005 | 61 | 305 | 0.0 | 0.0 | 0.00 | 0.00 | 0.00 | 45 | 1015.5 |
| 20260508040005 | 61 | 305 | 0.0 | 0.0 | 0.00 | 0.00 | 0.00 | 45 | 1015.5 |
| 20260508035504 | 61 | 305 | 0.0 | 0.0 | 0.00 | 0.00 | 0.00 | 45 | 1015.5 |
| 20260508035008 | 61 | 305 | 0.0 | 0.0 | 0.00 | 0.00 | 0.00 | 45 | 1015.5 |
| 20260508034504 | 62 | 305 | 0.0 | 0.0 | 0.00 | 0.00 | 0.00 | 45 | 1014.5 |
| 20260508034004 | 62 | 305 | 0.0 | 0.0 | 0.00 | 0.00 | 0.00 | 45 | 1014.5 |
| 20260508033505 | 62 | 305 | 0.0 | 0.0 | 0.00 | 0.00 | 0.00 | 45 | 1014.5 |
| 20260508033004 | 62 | 305 | 0.0 | 0.0 | 0.00 | 0.00 | 0.00 | 46 | 1013.5 |
| 20260508032005 | 62 | 282 | 0.0 | 0.0 | 0.00 | 0.00 | 0.00 | 46 | 1013.5 |
| 20260508031504 | 62 | 282 | 0.0 | 0.0 | 0.00 | 0.00 | 0.00 | 46 | 1014.5 |
| 20260508031005 | 63 | 282 | 0.0 | 0.0 | 0.00 | 0.00 | 0.00 | 45 | 1014.5 |
| 20260508030505 | 63 | 282 | 0.0 | 0.0 | 0.00 | 0.00 | 0.00 | 45 | 1014.5 |
| 20260508030004 | 63 | 282 | 0.0 | 0.0 | 0.00 | 0.00 | 0.00 | 46 | 1013.5 |
| 20260508025505 | 63 | 282 | 0.0 | 0.0 | 0.00 | 0.00 | 0.00 | 46 | 1013.5 |
| 20260508025004 | 64 | 282 | 0.0 | 0.0 | 0.00 | 0.00 | 0.00 | 46 | 1013.5 |
| 20260508024505 | 64 | 282 | 0.0 | 0.0 | 0.00 | 0.00 | 0.00 | 45 | 1014.5 |
| 20260508024004 | 64 | 282 | 0.0 | 0.0 | 0.00 | 0.00 | 0.00 | 45 | 1014.5 |
| 20260508023504 | 64 | 260 | 0.0 | 0.0 | 0.00 | 0.00 | 0.00 | 46 | 1014.5 |
| 20260508023005 | 65 | 260 | 0.0 | 0.0 | 0.00 | 0.00 | 0.00 | 45 | 1014.5 |
| 20260508022505 | 65 | 260 | 0.0 | 0.0 | 0.00 | 0.00 | 0.00 | 45 | 1014.5 |
| 20260508021005 | 66 | 182 | 0.0 | 0.0 | 0.00 | 0.00 | 0.00 | 45 | 1014.5 |
| 20260508020505 | 66 | 58 | 0.0 | 0.0 | 0.00 | 0.00 | 0.00 | 45 | 1014.5 |
| 20260508020006 | 66 | 58 | 0.0 | 0.0 | 0.00 | 0.00 | 0.00 | 45 | 1014.5 |
| 20260508015005 | 66 | 58 | 0.0 | 0.0 | 0.00 | 0.00 | 0.00 | 45 | 1014.5 |
| 20260508014504 | 66 | 54 | 0.0 | 0.0 | 0.00 | 0.00 | 0.00 | 44 | 1014.5 |
| 20260508014004 | 66 | 35 | 0.0 | 0.0 | 0.00 | 0.00 | 0.00 | 44 | 1014.5 |
| 20260508013005 | 66 | 305 | 0.0 | 0.0 | 0.00 | 0.00 | 0.00 | 44 | 1015.5 |
| 20260508012505 | 67 | 305 | 0.0 | 0.0 | 0.00 | 0.00 | 0.00 | 44 | 1015.5 |
| 20260508012004 | 67 | 305 | 0.0 | 2.6 | 0.00 | 0.00 | 0.00 | 44 | 1015.5 |
| 20260508011504 | 67 | 305 | 0.0 | 2.6 | 0.00 | 0.00 | 0.00 | 44 | 1015.5 |
| 20260508011004 | 67 | 76 | 0.0 | 0.0 | 0.00 | 0.00 | 0.00 | 44 | 1015.5 |
| 20260508010505 | 67 | 58 | 0.0 | 0.0 | 0.00 | 0.00 | 0.00 | 44 | 1015.5 |
| 20260508010005 | 67 | 35 | 0.0 | 1.7 | 0.00 | 0.00 | 0.00 | 44 | 1015.5 |
| 20260508005504 | 67 | 43 | 0.9 | 4.3 | 0.00 | 0.00 | 0.00 | 44 | 1015.5 |
| 20260508004504 | 67 | 25 | 0.0 | 0.0 | 0.00 | 0.00 | 0.00 | 44 | 1015.5 |
| 20260508004004 | 68 | 202 | 0.0 | 0.0 | 0.00 | 0.00 | 0.00 | 44 | 1015.5 |
| 20260508003005 | 68 | 35 | 0.0 | 0.0 | 0.00 | 0.00 | 0.00 | 44 | 1015.5 |
| 20260508002504 | 68 | 119 | 0.0 | 0.0 | 0.00 | 0.00 | 0.00 | 43 | 1015.5 |
| 20260508002004 | 68 | 91 | 0.0 | 0.0 | 0.00 | 0.00 | 0.00 | 43 | 1015.5 |
| 20260508000004 | 69 | 305 | 0.0 | 0.0 | 0.00 | 0.00 | 0.00 | 42 | 1016.5 |
| 20260507235504 | 68 | 305 | 0.0 | 0.0 | 0.00 | 0.00 | 0.00 | 43 | 1016.5 |
| 20260507235004 | 68 | 260 | 0.0 | 0.0 | 0.00 | 0.00 | 0.00 | 42 | 1016.5 |
| 20260507234504 | 69 | 125 | 0.0 | 0.0 | 0.00 | 0.00 | 0.00 | 43 | 1016.5 |
| 20260507233004 | 69 | 225 | 0.0 | 0.0 | 0.00 | 0.00 | 0.00 | 43 | 1016.5 |
| 20260507232503 | 69 | 305 | 0.0 | 0.0 | 0.00 | 0.00 | 0.00 | 43 | 1016.5 |
| 20260507231504 | 69 | 136 | 0.0 | 0.0 | 0.00 | 0.00 | 0.00 | 43 | 1016.5 |
| 20260507231004 | 69 | 305 | 0.0 | 1.7 | 0.00 | 0.00 | 0.00 | 44 | 1016.5 |
| 20260507230504 | 70 | 36 | 0.0 | 1.7 | 0.00 | 0.00 | 0.00 | 44 | 1016.5 |
| 20260507230005 | 70 | 129 | 0.0 | 0.0 | 0.00 | 0.00 | 0.00 | 44 | 1016.5 |
| 20260507225004 | 70 | 226 | 0.0 | 0.0 | 0.00 | 0.00 | 0.00 | 45 | 1016.5 |
| 20260507224004 | 69 | 185 | 0.0 | 0.0 | 0.00 | 0.00 | 0.00 | 45 | 1015.5 |
| 20260507223004 | 69 | 69 | 0.0 | 0.0 | 0.00 | 0.00 | 0.00 | 47 | 1016.5 |
| 20260507222505 | 69 | 247 | 0.0 | 5.2 | 0.00 | 0.00 | 0.00 | 46 | 1016.5 |
| 20260507222004 | 69 | 165 | 0.9 | 5.2 | 0.00 | 0.00 | 0.00 | 47 | 1016.5 |
| 20260507221504 | 69 | 291 | 0.0 | 1.7 | 0.00 | 0.00 | 0.00 | 47 | 1016.5 |
| 20260507221005 | 68 | 35 | 0.0 | 5.2 | 0.00 | 0.00 | 0.00 | 47 | 1016.5 |
| 20260507220505 | 69 | 86 | 0.0 | 5.2 | 0.00 | 0.00 | 0.00 | 48 | 1016.5 |
| 20260507220004 | 69 | 35 | 0.0 | 5.2 | 0.00 | 0.00 | 0.00 | 48 | 1016.5 |
| 20260507215005 | 68 | 275 | 0.0 | 0.0 | 0.00 | 0.00 | 0.00 | 48 | 1016.5 |
| 20260507214503 | 68 | 283 | 0.0 | 1.7 | 0.00 | 0.00 | 0.00 | 49 | 1016.5 |
| 20260507214004 | 68 | 215 | 0.0 | 1.7 | 0.00 | 0.00 | 0.00 | 48 | 1016.5 |
| 20260507213004 | 67 | 251 | 0.0 | 1.7 | 0.00 | 0.00 | 0.00 | 50 | 1017.5 |
| 20260507212504 | 67 | 350 | 0.0 | 1.7 | 0.00 | 0.00 | 0.00 | 51 | 1017.5 |
| 20260507211504 | 66 | 109 | 0.0 | 1.7 | 0.00 | 0.00 | 0.00 | 50 | 1017.5 |
| 20260507211003 | 67 | 235 | 0.0 | 0.0 | 0.00 | 0.00 | 0.00 | 50 | 1017.5 |
| 20260507210005 | 66 | 282 | 0.0 | 5.2 | 0.00 | 0.00 | 0.00 | 53 | 1017.5 |
| 20260507205504 | 66 | 316 | 0.0 | 6.1 | 0.00 | 0.00 | 0.00 | 54 | 1017.5 |
| 20260507205004 | 66 | 305 | 0.0 | 6.1 | 0.00 | 0.00 | 0.00 | 54 | 1017.5 |
| 20260507204004 | 65 | 306 | 0.9 | 5.2 | 0.00 | 0.00 | 0.00 | 54 | 1017.5 |
| 20260507203503 | 65 | 73 | 1.7 | 5.2 | 0.00 | 0.00 | 0.00 | 57 | 1017.5 |
| 20260507202503 | 64 | 289 | 0.9 | 6.1 | 0.00 | 0.00 | 0.00 | 57 | 1017.5 |
| 20260507202004 | 64 | 305 | 0.0 | 6.1 | 0.00 | 0.00 | 0.00 | 59 | 1017.5 |
| 20260507201504 | 64 | 194 | 0.9 | 5.2 | 0.00 | 0.00 | 0.00 | 59 | 1017.5 |
| 20260507201003 | 63 | 230 | 0.0 | 5.2 | 0.00 | 0.00 | 0.00 | 59 | 1017.5 |
| 20260507200503 | 63 | 110 | 2.6 | 5.2 | 0.00 | 0.00 | 0.00 | 58 | 1017.5 |
| 20260507195504 | 63 | 259 | 0.0 | 1.7 | 0.00 | 0.00 | 0.00 | 61 | 1017.5 |
| 20260507195004 | 63 | 215 | 0.0 | 1.7 | 0.00 | 0.00 | 0.00 | 62 | 1017.5 |
| 20260507194504 | 63 | 228 | 0.0 | 4.3 | 0.00 | 0.00 | 0.00 | 61 | 1017.5 |
| 20260507194004 | 61 | 94 | 0.0 | 6.1 | 0.00 | 0.00 | 0.00 | 62 | 1017.5 |
| 20260507193504 | 61 | 103 | 1.7 | 6.1 | 0.00 | 0.00 | 0.00 | 61 | 1017.5 |
| 20260507193007 | 62 | 85 | 1.7 | 6.1 | 0.00 | 0.00 | 0.00 | 63 | 1018.5 |
| 20260507192507 | 62 | 226 | 1.7 | 5.2 | 0.00 | 0.00 | 0.00 | 63 | 1018.5 |
| 20260507192006 | 61 | 148 | 0.0 | 4.3 | 0.00 | 0.00 | 0.00 | 63 | 1018.5 |
| 20260507191506 | 61 | 69 | 0.0 | 7.0 | 0.00 | 0.00 | 0.00 | 64 | 1018.5 |
| 20260507191007 | 61 | 168 | 0.9 | 7.0 | 0.00 | 0.00 | 0.00 | 64 | 1018.5 |
| 20260507190507 | 60 | 143 | 0.9 | 6.1 | 0.00 | 0.00 | 0.00 | 64 | 1018.5 |
| 20260507190007 | 60 | 165 | 0.9 | 6.1 | 0.00 | 0.00 | 0.00 | 66 | 1018.5 |
| 20260507185508 | 60 | 296 | 0.0 | 5.2 | 0.00 | 0.00 | 0.00 | 65 | 1018.5 |
| 20260507185007 | 60 | 218 | 1.7 | 5.2 | 0.00 | 0.00 | 0.00 | 66 | 1018.5 |
| 20260507184506 | 59 | 107 | 0.0 | 2.6 | 0.00 | 0.00 | 0.00 | 66 | 1018.5 |
| 20260507184006 | 59 | 238 | 0.0 | 2.6 | 0.00 | 0.00 | 0.00 | 67 | 1018.5 |
| 20260507183506 | 59 | 273 | 0.9 | 7.0 | 0.00 | 0.00 | 0.00 | 68 | 1018.5 |
| 20260507183006 | 59 | 119 | 2.6 | 7.0 | 0.00 | 0.00 | 0.00 | 68 | 1018.5 |
| 20260507182007 | 58 | 196 | 0.0 | 5.2 | 0.00 | 0.00 | 0.00 | 68 | 1018.5 |
| 20260507181506 | 58 | 307 | 0.9 | 4.3 | 0.00 | 0.00 | 0.00 | 69 | 1018.5 |
| 20260507181006 | 58 | 145 | 0.0 | 1.7 | 0.00 | 0.00 | 0.00 | 69 | 1018.5 |
| 20260507180506 | 57 | 282 | 0.0 | 4.3 | 0.00 | 0.00 | 0.00 | 69 | 1018.5 |
| 20260507180006 | 58 | 158 | 0.9 | 4.3 | 0.00 | 0.00 | 0.00 | 69 | 1018.5 |
| 20260507175507 | 57 | 248 | 0.0 | 1.7 | 0.00 | 0.00 | 0.00 | 70 | 1018.5 |
| 20260507175008 | 57 | 56 | 0.0 | 4.3 | 0.00 | 0.00 | 0.00 | 70 | 1018.5 |
| 20260507174506 | 57 | 127 | 0.0 | 4.3 | 0.00 | 0.00 | 0.00 | 70 | 1018.5 |
| 20260507174006 | 57 | 83 | 0.0 | 4.3 | 0.00 | 0.00 | 0.00 | 71 | 1018.5 |
| 20260507173507 | 56 | 80 | 0.9 | 5.2 | 0.00 | 0.00 | 0.00 | 71 | 1018.5 |
| 20260507173006 | 56 | 301 | 0.9 | 5.2 | 0.00 | 0.00 | 0.00 | 71 | 1018.5 |
| 20260507172506 | 56 | 35 | 0.9 | 5.2 | 0.00 | 0.00 | 0.00 | 72 | 1018.5 |
| 20260507172007 | 55 | 329 | 0.9 | 5.2 | 0.00 | 0.00 | 0.00 | 71 | 1018.5 |
| 20260507171506 | 55 | 173 | 0.0 | 7.0 | 0.00 | 0.00 | 0.00 | 72 | 1017.5 |
| 20260507171006 | 55 | 42 | 1.7 | 7.0 | 0.00 | 0.00 | 0.00 | 72 | 1017.5 |
| 20260507170507 | 55 | 72 | 0.0 | 7.0 | 0.00 | 0.00 | 0.00 | 73 | 1017.5 |
| 20260507170006 | 55 | 122 | 1.7 | 7.0 | 0.00 | 0.00 | 0.00 | 74 | 1018.5 |
| 20260507165506 | 55 | 18 | 0.0 | 4.3 | 0.00 | 0.00 | 0.00 | 74 | 1018.5 |
| 20260507165006 | 54 | 45 | 0.9 | 5.2 | 0.00 | 0.00 | 0.00 | 73 | 1018.5 |
| 20260507164506 | 53 | 205 | 0.9 | 5.2 | 0.00 | 0.00 | 0.00 | 74 | 1018.5 |
| 20260507164006 | 54 | 116 | 0.0 | 5.2 | 0.00 | 0.00 | 0.00 | 74 | 1018.5 |
| 20260507163506 | 53 | 305 | 0.0 | 1.7 | 0.00 | 0.00 | 0.00 | 74 | 1018.5 |
| 20260507163006 | 53 | 102 | 0.0 | 1.7 | 0.00 | 0.00 | 0.00 | 74 | 1018.5 |
| 20260507162506 | 53 | 167 | 0.0 | 1.7 | 0.00 | 0.00 | 0.00 | 75 | 1018.5 |
| 20260507162006 | 52 | 110 | 0.0 | 1.7 | 0.00 | 0.00 | 0.00 | 74 | 1018.5 |
| 20260507161506 | 52 | 66 | 0.0 | 1.7 | 0.00 | 0.00 | 0.00 | 74 | 1018.5 |
| 20260507160506 | 52 | 335 | 0.0 | 0.0 | 0.00 | 0.00 | 0.00 | 74 | 1018.5 |
| 20260507155006 | 52 | 66 | 0.0 | 0.0 | 0.00 | 0.00 | 0.00 | 75 | 1018.5 |
| 20260507154506 | 52 | 10 | 0.0 | 5.2 | 0.00 | 0.00 | 0.00 | 75 | 1018.5 |
| 20260507154008 | 52 | 38 | 0.9 | 5.2 | 0.00 | 0.00 | 0.00 | 76 | 1018.5 |